This demonstration page uses our WeatherBlox Daily Observations layout. Learn more.

Left ArrowRight Arrow

39.08367, -84.50855

Hourly Observations for July 8, 2015

Temp ( °F °C ) Dew Point ( °F °C ) Humidity (%) Winds ( mph kmh ) Pressure ( in mb ) Visibility ( mi km ) Precip ( " mm )
12:09 am 00:09 Cloudy with Light Rain 70 21.1 68 20 93 93 NW 9 15 30.00 1016 4 6 0.01 0.25
12:26 am 00:26 Cloudy with Light Rain 70 21 66 19 88 88 NW 6 9 30.00 1016 8 13 0.00 0.00
12:53 am 00:53 Cloudy with Light Rain 69 20.6 66 18.9 90 90 N 5 7 30.02 1017 9 14 0.01 0.25
1:51 am 01:51 Cloudy 70 21 66 19 88 88 N 5 7 30.00 1016 10 16 0.00 0.03
1:53 am 01:53 Cloudy 69 20.6 66 18.9 90 90 N 5 7 30.02 1017 10 16 0.00 0.03
2:53 am 02:53 Cloudy 68 20 66 18.9 93 93 Calm 30.02 1017 10 16 0.00 0.03
3:31 am 03:31 Cloudy 68 20 67 19.4 96 96 Calm 30.00 1016 10 16 0.00 0.00
3:53 am 03:53 Cloudy 68 20 65 18.3 90 90 Calm 30.02 1017 10 16 0.00 0.00
4:53 am 04:53 Cloudy 68 20 66 18.9 93 93 Calm 30.02 1017 10 16 0.00 0.00
5:26 am 05:26 Cloudy with Light Rain 66 19 64 18 94 94 Calm 30.00 1016 7 11 0.00 0.00
5:42 am 05:42 Cloudy 66 19 64 18 94 94 Calm 30.00 1016 10 16 0.00 0.00
5:53 am 05:53 Cloudy 67 19.4 65 18.3 93 93 Calm 30.03 1017 10 16 0.02 0.51
6:53 am 06:53 Cloudy with Light Rain 67 19.4 66 18.9 97 97 Calm 30.04 1017 3 4 0.00 0.03
7:53 am 07:53 Cloudy with Light Rain 67 19.4 66 18.9 97 97 Calm 30.04 1017 3 4 0.00 0.03
8:53 am 08:53 Cloudy with Mist and Fog 68 20 66 18.9 93 93 VRB 3 6 30.05 1018 3 5 0.00 0.03
9:53 am 09:53 Cloudy with Light Rain 68 20 67 19.4 96 96 Calm 30.06 1018 5 8 0.00 0.03
10:53 am 10:53 Cloudy with Light Rain 69 20.6 67 19.4 93 93 Calm 30.06 1018 3 5 0.00 0.03
11:53 am 11:53 Cloudy 70 21.1 67 19.4 90 90 Calm 30.06 1018 8 13 0.00 0.03
12:20 pm 12:20 Cloudy with Light Rain 72 22 68 20 88 88 Calm 30.03 1017 2 3 0.00 0.00
12:21 pm 12:21 Cloudy with Light Rain 72 22 68 20 88 88 Calm 30.06 1018 2 3 0.00 0.00
12:53 pm 12:53 Cloudy with Light Rain 70 21.1 69 20.6 97 97 SW 3 6 30.06 1018 2 2 0.00 0.00
1:36 pm 13:36 Cloudy with Light Rain 72 22 70 21 94 94 VRB 3 6 30.03 1017 3 5 0.00 0.00
1:53 pm 13:53 Cloudy with Rain 71 21.7 69 20.6 94 94 WSW 7 11 30.06 1018 2 3 0.00 0.00
2:17 pm 14:17 Cloudy with Light Rain 71 21.7 69 20.6 94 94 W 7 11 30.03 1017 5 8 0.00 0.00
2:53 pm 14:53 Cloudy with Light Rain 72 22.2 70 21.1 94 94 W 7 11 30.05 1018 7 11 0.00 0.00
3:16 pm 15:16 Cloudy with Light Rain 73 23 70 21 89 89 W 9 15 30.03 1017 10 16 0.00 0.00
3:53 pm 15:53 Cloudy with Light Rain 73 22.8 69 20.6 87 87 W 6 9 30.05 1018 8 13 0.00 0.00
4:34 pm 16:34 Mostly Cloudy 73 23 70 21 89 89 VRB 3 6 30.03 1017 10 16 0.00 0.00
4:42 pm 16:42 Mostly Cloudy 73 23 70 21 89 89 VRB 5 7 30.03 1017 10 16 0.00 0.00
4:53 pm 16:53 Cloudy 73 22.8 69 20.6 87 87 WSW 7 11 30.04 1017 10 16 0.00 0.00
5:53 pm 17:53 Cloudy with Light Rain 73 22.8 70 21.1 90 90 SW 3 6 30.04 1017 10 16 0.00 0.00
6:03 pm 18:03 Cloudy with Rain 73 23 70 21 89 89 WSW 3 6 30.03 1017 2 3 0.00 0.00
6:13 pm 18:13 Cloudy with Light Rain 73 22.8 71 21.7 94 94 SW 3 6 30.03 1017 3 5 0.00 0.00
6:40 pm 18:40 Cloudy with Rain 73 23 72 22 94 94 S 5 7 30.00 1016 5 8 0.00 0.00
6:53 pm 18:53 Cloudy with Light Rain 72 22.2 71 21.7 97 97 S 6 9 30.02 1017 6 10 0.00 0.00
7:53 pm 19:53 Cloudy with Light Rain 72 22.2 71 21.7 97 97 SSW 6 9 30.03 1017 4 6 0.00 0.00
8:53 pm 20:53 Cloudy 71 21.7 70 21.1 96 96 Calm 30.03 1017 9 14 0.00 0.00
9:53 pm 21:53 Mostly Cloudy with Light Rain 71 21.7 70 21.1 96 96 Calm 30.04 1017 9 14 0.00 0.00
10:35 pm 22:35 Mostly Cloudy with Light Rain 70 21.1 70 21.1 100 100 Calm 30.03 1017 2 3 0.00 0.00
10:44 pm 22:44 Cloudy 70 21 70 21 100 100 Calm 30.03 1017 8 13 0.00 0.00
10:53 pm 22:53 Cloudy 71 21.7 70 21.1 96 96 Calm 30.04 1017 9 14 0.00 0.00
11:11 pm 23:11 Partly Cloudy 70 21.1 70 21.1 100 100 Calm 30.03 1017 9 14 0.00 0.00
11:39 pm 23:39 Clear with Mist and Fog 70 21.1 70 21.1 100 100 Calm 30.00 1016 2 3 0.00 0.00
11:51 pm 23:51 Mostly Cloudy with Mist and Fog 70 21 70 21 100 100 Calm 30.00 1016 1 1 0.00 0.00
11:53 pm 23:53 Mostly Cloudy with Mist and Fog 69 20.6 69 20.6 100 100 Calm 30.01 1016 1 1 0.00 0.00

Powered by AerisWeather